Weather History for Twin Falls, ID

Change the Weather History Date:

Monday, December 2, 2013

  Actual Average Record
Temperature  
Mean Temperature 43 °F -  
Max Temperature 58 °F 40 °F 60 °F (2012)
Min Temperature 28 °F 21 °F 5 °F (2006)
Degree Days  
Heating Degree Days 22 34  
Month to date heating degree days 39 68  
Since 1 July heating degree days 1395 1506  
Cooling Degree Days 0 0  
Month to date cooling degree days 0 0  
Year to date cooling degree days 1138 680  
Moisture  
Dew Point 26 °F    
Average Humidity 55    
Maximum Humidity 85    
Minimum Humidity 24    
Precipitation  
Precipitation 0.02 in 0.03 in 0.47 in (1992)
Month to date precipitation 0.02 0.07  
Year to date precipitation 4.48 9.50  
Sea Level Pressure  
Sea Level Pressure 29.71 in    
Wind  
Wind Speed 24 mph (WSW)    
Max Wind Speed 37 mph    
Max Gust Speed 48 mph    
Visibility 7 miles    
Events Rain , Snow    
T = Trace of Precipitation, MM = Missing Value Source: NWS Daily Summary

Daily Weather History Graph

Daily Weather History Graph

Search for Another Location

Airport:

Trip Planner

Search our weather history database for the weather conditions in past years. The results will help you decide how hot, cold, wet, or windy it might be!

Date:

Astronomy

Dec. 02, 2013 Rise Set
Actual Time 7:49 AM MST 5:05 PM MST
Civil Twilight 7:17 AM MST 5:37 PM MST
Nautical Twilight 6:42 AM MST 6:12 PM MST
Astronomical Twilight 6:08 AM MST 6:46 PM MST
Moon 7:18 AM MST (12/2) 5:13 PM MST (12/2)
Length of Visible Light 10h 19m
Length of Day
9h 16m
Waning Crescent, 0% of the Moon is Illuminated
Dec 2
Waning Crescent
Dec 2
New
Dec 9
First Quarter
Dec 17
Full
Dec 25
Last Quarter

Hourly Weather History & Observations

Time (MST) Temp. Windchill Dew Point Humidity Pressure Visibility Wind Dir Wind Speed Gust Speed Precip Events Conditions
12:53 AM 55.9 °F - 26.1 °F 32% 29.87 in 10.0 mi SW 25.3 mph 34.5 mph N/A   Clear
1:53 AM 55.9 °F - 24.1 °F 29% 29.83 in 10.0 mi SW 24.2 mph 33.4 mph N/A   Clear
2:53 AM 57.0 °F - 23.0 °F 27% 29.81 in 10.0 mi SW 24.2 mph 35.7 mph N/A   Partly Cloudy
3:53 AM 57.9 °F - 21.0 °F 24% 29.77 in 10.0 mi SW 28.8 mph 42.6 mph N/A   Mostly Cloudy
4:53 AM 57.0 °F - 21.9 °F 26% 29.77 in 10.0 mi West 21.9 mph 31.1 mph N/A   Overcast
5:53 AM 57.0 °F - 21.9 °F 26% 29.75 in 10.0 mi West 25.3 mph 39.1 mph N/A   Overcast
6:53 AM 57.0 °F - 21.0 °F 25% 29.75 in 10.0 mi WSW 19.6 mph 39.1 mph N/A   Overcast
7:53 AM 57.0 °F - 21.9 °F 26% 29.72 in 10.0 mi WSW 23.0 mph 35.7 mph N/A   Overcast
8:53 AM 55.9 °F - 23.0 °F 28% 29.73 in 10.0 mi West 27.6 mph 42.6 mph N/A   Overcast
9:53 AM 55.9 °F - 24.1 °F 29% 29.71 in 10.0 mi WSW 34.5 mph 44.9 mph N/A   Overcast
10:53 AM 55.9 °F - 23.0 °F 28% 29.71 in 10.0 mi West 23.0 mph 34.5 mph 0.00 in   Overcast
11:53 AM 55.9 °F - 23.0 °F 28% 29.67 in 10.0 mi WSW 26.5 mph 35.7 mph N/A   Overcast
12:53 PM 55.9 °F - 24.1 °F 29% 29.64 in 10.0 mi WSW 21.9 mph 39.1 mph 0.00 in   Overcast
1:53 PM 55.9 °F - 24.1 °F 29% 29.60 in 10.0 mi WSW 28.8 mph 35.7 mph N/A   Overcast
2:53 PM 55.9 °F - 24.1 °F 29% 29.57 in 10.0 mi WSW 17.3 mph 31.1 mph 0.00 in   Overcast
3:53 PM 55.9 °F - 25.0 °F 30% 29.52 in 10.0 mi SW 24.2 mph 33.4 mph N/A   Scattered Clouds
4:53 PM 55.0 °F - 26.1 °F 33% 29.51 in 10.0 mi SW 26.5 mph 36.8 mph N/A   Mostly Cloudy
5:53 PM 52.0 °F - 28.9 °F 41% 29.52 in 9.0 mi West 32.2 mph 39.1 mph 0.00 in Rain Light Rain
6:14 PM 43.0 °F 32.7 °F 37.0 °F 80% 29.66 in 10.0 mi West 28.8 mph 39.1 mph 0.00 in Rain Light Rain
6:28 PM 39.0 °F 26.2 °F 34.0 °F 82% 29.67 in 10.0 mi West 35.7 mph 44.9 mph 0.00 in   Overcast
6:35 PM 37.9 °F 25.1 °F 34.0 °F 86% 29.67 in 10.0 mi West 33.4 mph 44.9 mph 0.00 in   Overcast
6:49 PM 35.6 °F 24.0 °F 30.2 °F 81% 29.69 in 1.8 mi WSW 23.0 mph 38.0 mph 0.01 in Snow Light Snow
6:53 PM 35.1 °F 22.7 °F 30.9 °F 85% 29.64 in 1.5 mi WSW 25.3 mph 34.5 mph 0.01 in Snow Light Snow
7:03 PM 35.1 °F 23.3 °F 30.9 °F 85% 29.70 in 2.5 mi WSW 23.0 mph 31.1 mph 0.00 in Snow Light Snow
7:08 PM 34.0 °F 21.0 °F 30.9 °F 89% 29.70 in 1.8 mi WSW 26.5 mph 33.4 mph 0.00 in Snow Light Snow
7:26 PM 33.1 °F 19.3 °F 28.9 °F 85% 29.72 in 0.8 mi WSW 28.8 mph 38.0 mph 0.01 in Snow Light Snow
7:35 PM 33.1 °F 20.1 °F 28.9 °F 85% 29.72 in 2.0 mi WSW 25.3 mph 33.4 mph 0.01 in Snow Light Snow
7:41 PM 33.1 °F 19.8 °F 28.9 °F 85% 29.73 in 4.0 mi WSW 26.5 mph 34.5 mph 0.01 in Snow Light Snow
7:51 PM 32.0 °F 19.2 °F 28.4 °F 87% 29.73 in 1.8 mi WSW 23.0 mph 32.2 mph 0.01 in Snow Light Snow
7:53 PM 32.0 °F 19.2 °F 28.9 °F 88% 29.68 in 1.2 mi WSW 23.0 mph 32.2 mph 0.01 in Snow Light Snow
8:07 PM 32.0 °F 18.9 °F 28.0 °F 85% 29.74 in 3.0 mi West 24.2 mph 32.2 mph 0.00 in Snow Light Snow
8:14 PM 32.0 °F 19.2 °F 28.0 °F 85% 29.74 in 8.0 mi WSW 23.0 mph 29.9 mph 0.00 in Snow Light Snow
8:51 PM 30.2 °F 18.5 °F 26.6 °F 86% 29.79 in 7.0 mi SW 17.3 mph - 0.00 in Snow Light Snow
8:53 PM 30.9 °F 19.8 °F 27.0 °F 85% 29.74 in 5.0 mi SW 16.1 mph - 0.00 in Snow Light Snow
9:24 PM 30.0 °F 19.5 °F 25.0 °F 82% 29.79 in 4.0 mi SSW 13.8 mph - 0.00 in Snow Light Snow
9:36 PM 30.0 °F 19.1 °F 25.0 °F 82% 29.79 in 5.0 mi SSW 15.0 mph - 0.00 in Snow Light Snow
9:53 PM 30.0 °F 17.2 °F 25.0 °F 82% 29.75 in 9.0 mi South 20.7 mph 28.8 mph 0.00 in   Overcast
10:53 PM 28.9 °F 17.3 °F 23.0 °F 78% 29.75 in 6.0 mi SW 16.1 mph 24.2 mph 0.00 in Snow Light Snow
11:53 PM 28.0 °F 16.5 °F 21.9 °F 78% 29.76 in 10.0 mi SW 15.0 mph - 0.00 in   Overcast